Regional Weather Roundup
Issued by NWS

Home | Current Version | Previous Version | Graphics & Text | Print | Product List | Glossary On
Versions: 1 2 3 4 5 6 7 8 9 10 11 12 13 14 15 16 17 18 19 20 21 22 23 24 25 26 27 28 29 30 31 32 33 34 35 36 37 38 39 40 41 42 43 44 45 46 47 48 49 50
000
ASUS43 KFSD 272010
RWRSD

WEATHER ROUNDUP FOR SOUTH DAKOTA
NATIONAL WEATHER SERVICE SIOUX FALLS SD
300 PM CDT SAT MAY 27 2017

NOTE: "FAIR" INDICATES FEW OR NO CLOUDS BELOW 12,000 FEET WITH NO
SIGNIFICANT WEATHER AND/OR OBSTRUCTIONS TO VISIBILITY.


SDZ001>005-009-010-012>017-272100-
NORTHWEST AND NORTH CENTRAL SOUTH DAKOTA

CITY           SKY/WX    TMP DP  RH WIND       PRES   REMARKS
BUFFALO          N/A     72  37  28 W28G39    29.89F
FAITH            N/A     73  38  27 W23       29.93F
MOBRIDGE       MOSUNNY   75  35  23 NW16G24   29.85F
$$

SDZ012>016-024>037-041>051-057-063-072>074-272100-
SOUTHWEST AND SOUTH CENTRAL SOUTH DAKOTA

CITY           SKY/WX    TMP DP  RH WIND       PRES   REMARKS
RAPID CTY ARPT MOSUNNY   71  35  26 NW10G23   30.00F
PIERRE         SUNNY     73  43  33 SW9       29.90F
CUSTER         PTSUNNY   55  30  38 N10G21    30.09S
ELLSWORTH AFB  MOSUNNY   70  36  28 N17       29.99
PHILIP         MOSUNNY   74  36  25 W13G22    29.94F
PINE RIDGE     CLOUDY    62  41  46 NW17G25   30.06R
SPEARFISH      FAIR      64  36  34 NW15G22   30.04S
WINNER         FAIR      67  52  58 SW8       29.98F
$$

SDZ004>011-016>023-039-040-272100-
NORTHEAST SOUTH DAKOTA

CITY           SKY/WX    TMP DP  RH WIND       PRES   REMARKS
ABERDEEN       MOSUNNY   76  36  23 W13G24    29.85F
WATERTOWN      CLOUDY    67  38  34 W12       29.89F
BROOKINGS      PTSUNNY   68  45  43 SW12      29.92F
SISSETON         N/A     76  44  32 W14G28    29.83F
$$

SDZ017-020-022-023-036>040-048>070-272100-
SOUTHEAST SOUTH DAKOTA

CITY           SKY/WX    TMP DP  RH WIND       PRES   REMARKS
SIOUX FALLS    CLOUDY    65  53  65 SW8       29.93F
HURON          PTSUNNY   69  45  41 W9        29.93F
CHAMBERLAIN    CLOUDY    67  51  56 S8        29.96F
MITCHELL       CLOUDY    69  46  43 NW13      29.94F
YANKTON        PTSUNNY   64  49  57 N7        29.95F
$$

ABBREVIATIONS USED IN REMARKS
   TC - TEMPERATURE IN CELSIUS
  WCI - WIND CHILL INDEX
   HX - HEAT INDEX
  VSB - VISIBILITY




USA.gov is the U.S. government's official web portal to all federal, state and local government web resources and services.